Time,TemperatureF,DewpointF,PressureIn,WindDirection,WindDirectionDegrees,WindSpeedMPH,WindSpeedGustMPH,Humidity,HourlyPrecipIn,Conditions,Clouds,dailyrainin,SolarRadiationWatts/m^2,SoftwareType,DateUTC
2013-07-15 00:22:00,53.0,45.0,-100.00,SSW,197,0.0,3.0,75,0.00,,,0.00,1.000000,,2013-07-15 08:22:00,
2013-07-15 00:32:00,53.0,45.0,-100.00,SSW,197,0.0,3.0,75,0.00,,,0.00,1.000000,,2013-07-15 08:32:00,
2013-07-15 00:43:00,53.0,45.0,-100.00,SSW,197,0.0,3.0,75,0.00,,,0.00,1.000000,,2013-07-15 08:43:00,
2013-07-15 00:53:00,53.0,45.0,-100.00,SSW,197,0.0,3.0,75,0.00,,,0.00,1.000000,,2013-07-15 08:53:00,
2013-07-15 01:22:00,48.0,43.0,-100.00,South,183,0.0,2.0,82,0.00,,,0.00,0.000000,,2013-07-15 09:22:00,
2013-07-15 01:32:00,48.0,43.0,-100.00,South,183,0.0,2.0,82,0.00,,,0.00,0.000000,,2013-07-15 09:32:00,
2013-07-15 01:42:00,48.0,43.0,-100.00,South,183,0.0,2.0,82,0.00,,,0.00,0.000000,,2013-07-15 09:42:00,
2013-07-15 01:52:00,48.0,43.0,-100.00,South,183,0.0,2.0,82,0.00,,,0.00,0.000000,,2013-07-15 09:52:00,
2013-07-15 02:21:00,45.0,41.0,-100.00,South,183,0.0,2.0,85,0.00,,,0.00,0.000000,,2013-07-15 10:21:00,
2013-07-15 02:32:00,45.0,41.0,-100.00,South,183,0.0,2.0,85,0.00,,,0.00,0.000000,,2013-07-15 10:32:00,
2013-07-15 02:42:00,45.0,41.0,-100.00,South,183,0.0,2.0,85,0.00,,,0.00,0.000000,,2013-07-15 10:42:00,
2013-07-15 02:52:00,45.0,41.0,-100.00,South,183,0.0,2.0,85,0.00,,,0.00,0.000000,,2013-07-15 10:52:00,
2013-07-15 03:22:00,42.0,39.0,-100.00,South,169,0.0,2.0,88,0.00,,,0.00,0.000000,,2013-07-15 11:22:00,
2013-07-15 03:32:00,42.0,39.0,-100.00,South,169,0.0,2.0,88,0.00,,,0.00,0.000000,,2013-07-15 11:32:00,
2013-07-15 03:42:00,42.0,39.0,-100.00,South,169,0.0,2.0,88,0.00,,,0.00,0.000000,,2013-07-15 11:42:00,
2013-07-15 03:52:00,42.0,39.0,-100.00,South,169,0.0,2.0,88,0.00,,,0.00,0.000000,,2013-07-15 11:52:00,
2013-07-15 04:22:00,40.0,37.0,-100.00,South,177,0.0,2.0,88,0.00,,,0.00,0.000000,,2013-07-15 12:22:00,
2013-07-15 04:32:00,40.0,37.0,-100.00,South,177,0.0,2.0,88,0.00,,,0.00,0.000000,,2013-07-15 12:32:00,
2013-07-15 04:52:00,40.0,37.0,-100.00,South,177,0.0,2.0,88,0.00,,,0.00,0.000000,,2013-07-15 12:52:00,
2013-07-15 05:33:00,38.0,35.0,-100.00,SSE,147,0.0,2.0,90,-99.99,,,0.00,6.000000,,2013-07-15 13:33:00,
2013-07-15 05:43:00,38.0,35.0,-100.00,SSE,147,0.0,2.0,90,-99.99,,,0.00,6.000000,,2013-07-15 13:43:00,
2013-07-15 07:35:00,51.0,44.0,-100.00,ESE,116,0.0,3.0,78,-99.99,,,0.00,135.000000,,2013-07-15 15:35:00,
2013-07-15 07:53:00,51.0,44.0,-100.00,ESE,116,0.0,3.0,78,-99.99,,,0.00,135.000000,,2013-07-15 15:53:00,
2013-07-15 08:24:00,59.0,46.0,-100.00,ESE,108,1.0,3.0,63,0.00,,,0.00,297.000000,,2013-07-15 16:24:00,
2013-07-15 08:32:00,59.0,46.0,-100.00,ESE,108,1.0,3.0,63,0.00,,,0.00,297.000000,,2013-07-15 16:32:00,
2013-07-15 08:44:00,59.0,46.0,-100.00,ESE,108,1.0,3.0,63,0.00,,,0.00,297.000000,,2013-07-15 16:44:00,
2013-07-15 08:52:00,59.0,46.0,-100.00,ESE,108,1.0,3.0,63,0.00,,,0.00,297.000000,,2013-07-15 16:52:00,
2013-07-15 09:35:00,63.0,47.0,-100.00,East,83,1.0,4.0,55,0.00,,,0.00,428.000000,,2013-07-15 17:35:00,
2013-07-15 09:54:00,63.0,47.0,-100.00,East,83,1.0,4.0,55,0.00,,,0.00,428.000000,,2013-07-15 17:54:00,
2013-07-15 10:24:00,66.0,47.0,-100.00,ENE,65,3.0,4.0,50,0.00,,,0.00,554.000000,,2013-07-15 18:24:00,
2013-07-15 10:34:00,66.0,47.0,-100.00,ENE,65,3.0,4.0,50,0.00,,,0.00,554.000000,,2013-07-15 18:34:00,
2013-07-15 10:45:00,66.0,47.0,-100.00,ENE,65,3.0,4.0,50,0.00,,,0.00,554.000000,,2013-07-15 18:45:00,
2013-07-15 10:53:00,66.0,47.0,-100.00,ENE,65,3.0,4.0,50,0.00,,,0.00,554.000000,,2013-07-15 18:53:00,
2013-07-15 11:24:00,70.0,48.0,-100.00,WSW,254,2.0,6.0,45,0.00,,,0.00,665.000000,,2013-07-15 19:24:00,
2013-07-15 11:34:00,70.0,48.0,-100.00,WSW,254,2.0,6.0,45,0.00,,,0.00,665.000000,,2013-07-15 19:34:00,
2013-07-15 11:44:00,70.0,48.0,-100.00,WSW,254,2.0,6.0,45,0.00,,,0.00,665.000000,,2013-07-15 19:44:00,
2013-07-15 11:54:00,70.0,48.0,-100.00,WSW,254,2.0,6.0,45,0.00,,,0.00,665.000000,,2013-07-15 19:54:00,
2013-07-15 12:34:00,73.0,49.0,-100.00,North,354,2.0,7.0,42,0.00,,,0.00,753.000000,,2013-07-15 20:34:00,
2013-07-15 12:43:00,73.0,49.0,-100.00,North,354,2.0,7.0,42,0.00,,,0.00,753.000000,,2013-07-15 20:43:00,
2013-07-15 12:53:00,73.0,49.0,-100.00,North,354,2.0,7.0,42,0.00,,,0.00,753.000000,,2013-07-15 20:53:00,
2013-07-15 13:23:00,76.0,49.0,-100.00,SSW,197,2.0,7.0,38,0.00,,,0.00,796.000000,,2013-07-15 21:23:00,
2013-07-15 13:44:00,76.0,49.0,-100.00,SSW,197,2.0,7.0,38,0.00,,,0.00,796.000000,,2013-07-15 21:44:00,
2013-07-15 14:22:00,78.0,49.0,-100.00,WNW,284,3.0,8.0,36,0.00,,,0.00,819.000000,,2013-07-15 22:22:00,
2013-07-15 14:34:00,78.0,49.0,-100.00,WNW,284,3.0,8.0,36,0.00,,,0.00,819.000000,,2013-07-15 22:34:00,
2013-07-15 14:43:00,78.0,49.0,-100.00,WNW,284,3.0,8.0,36,0.00,,,0.00,819.000000,,2013-07-15 22:43:00,
2013-07-15 14:54:00,78.0,49.0,-100.00,WNW,284,3.0,8.0,36,0.00,,,0.00,819.000000,,2013-07-15 22:54:00,
2013-07-15 15:44:00,80.0,49.0,-100.00,North,352,4.0,9.0,34,0.00,,,0.00,811.000000,,2013-07-15 23:44:00,
2013-07-15 15:53:00,80.0,49.0,-100.00,North,352,4.0,9.0,34,0.00,,,0.00,811.000000,,2013-07-15 23:53:00,
2013-07-15 16:25:00,82.0,49.0,-100.00,NW,306,3.0,11.0,32,0.00,,,0.00,703.000000,,2013-07-16 00:25:00,
2013-07-15 16:33:00,82.0,49.0,-100.00,NW,306,3.0,11.0,32,0.00,,,0.00,703.000000,,2013-07-16 00:33:00,
2013-07-15 16:44:00,82.0,49.0,-100.00,NW,306,3.0,11.0,32,0.00,,,0.00,703.000000,,2013-07-16 00:44:00,
2013-07-15 16:52:00,82.0,49.0,-100.00,NW,306,3.0,11.0,32,0.00,,,0.00,703.000000,,2013-07-16 00:52:00,
2013-07-15 17:25:00,83.0,47.0,-100.00,NW,316,4.0,8.0,29,0.00,,,0.00,698.000000,,2013-07-16 01:25:00,
2013-07-15 17:45:00,83.0,47.0,-100.00,NW,316,4.0,8.0,29,0.00,,,0.00,698.000000,,2013-07-16 01:45:00,
2013-07-15 17:54:00,83.0,47.0,-100.00,NW,316,4.0,8.0,29,0.00,,,0.00,698.000000,,2013-07-16 01:54:00,
2013-07-15 18:25:00,84.0,47.0,-100.00,WSW,258,3.0,11.0,28,0.00,,,0.00,629.000000,,2013-07-16 02:25:00,
2013-07-15 18:35:00,84.0,47.0,-100.00,WSW,258,3.0,11.0,28,0.00,,,0.00,629.000000,,2013-07-16 02:35:00,
2013-07-15 18:45:00,84.0,47.0,-100.00,WSW,258,3.0,11.0,28,0.00,,,0.00,629.000000,,2013-07-16 02:45:00,
2013-07-15 18:54:00,84.0,47.0,-100.00,WSW,258,3.0,11.0,28,0.00,,,0.00,629.000000,,2013-07-16 02:54:00,